{"data":{"norad_id":84407,"epoch":"2026-05-23T04:16:54.349248Z","epoch_age_seconds":239250,"freshness":"STALE","line1":"1 84407U          26143.17840682 -.00000179  00000+0 -38462-2 0  9998","line2":"2 84407  19.3067 274.8517 7232884 149.1836 287.8014  2.05837271 79192","mean_motion":2.05837271,"eccentricity":0.7232884,"inclination_deg":19.3067,"raan_deg":274.8517,"arg_perigee_deg":149.1836,"mean_anomaly_deg":287.8014,"bstar":-0.0038462,"rev_number":7919,"period_min":699.58175844646,"perigee_km":845.34391967485,"apogee_km":38607.837120698,"semimajor_km":26104.727520187,"source":"CELESTRAK","updated_at":"2026-05-25T13:38:11.427457Z"}}